Time,TemperatureF,DewpointF,PressureIn,WindDirection,WindDirectionDegrees,WindSpeedMPH,WindSpeedGustMPH,Humidity,HourlyPrecipIn,Conditions,Clouds,dailyrainin,SoftwareType,DateUTC
2013-04-28 00:12:00,54.0,52.0,-100.00,SSE,155,3.0,5.0,93,-99.99,,,-99.99,,2013-04-28 05:12:00,
2013-04-28 00:22:00,54.0,52.0,-100.00,SSE,160,3.0,7.0,93,-99.99,,,-99.99,,2013-04-28 05:22:00,
2013-04-28 00:32:00,54.0,52.0,-100.00,SSE,160,3.0,7.0,93,-99.99,,,-99.99,,2013-04-28 05:32:00,
2013-04-28 00:42:00,54.0,52.0,-100.00,SSE,150,4.0,6.0,93,-99.99,,,-99.99,,2013-04-28 05:42:00,
2013-04-28 00:52:00,54.0,52.0,-100.00,SSE,165,4.0,6.0,93,-99.99,,,-99.99,,2013-04-28 05:52:00,
2013-04-28 01:01:00,54.0,52.0,-100.00,SSE,165,4.0,6.0,93,-99.99,,,-99.99,,2013-04-28 06:01:00,
2013-04-28 01:12:00,54.0,52.0,-100.00,SSE,165,4.0,6.0,93,-99.99,,,-99.99,,2013-04-28 06:12:00,
2013-04-28 01:21:00,54.0,52.0,-100.00,SSE,155,6.0,9.0,93,-99.99,,,-99.99,,2013-04-28 06:21:00,
2013-04-28 01:30:00,54.0,52.0,-100.00,South,175,5.0,7.0,93,-99.99,,,-99.99,,2013-04-28 06:30:00,
2013-04-28 01:32:00,54.0,52.0,-100.00,SSE,155,6.0,9.0,93,-99.99,,,-99.99,,2013-04-28 06:32:00,
2013-04-28 01:42:00,54.0,52.0,-100.00,SSE,155,6.0,9.0,93,-99.99,,,-99.99,,2013-04-28 06:42:00,
2013-04-28 01:52:00,54.0,52.0,-100.00,South,175,4.0,8.0,93,-99.99,,,-99.99,,2013-04-28 06:52:00,
2013-04-28 02:01:00,54.0,52.0,-100.00,South,175,4.0,8.0,93,-99.99,,,-99.99,,2013-04-28 07:01:00,
2013-04-28 02:11:00,54.0,52.0,-100.00,South,175,5.0,7.0,93,-99.99,,,-99.99,,2013-04-28 07:11:00,
2013-04-28 02:21:00,54.0,52.0,-100.00,South,175,5.0,7.0,93,-99.99,,,-99.99,,2013-04-28 07:21:00,
2013-04-28 02:42:00,54.0,52.0,-100.00,South,185,4.0,6.0,93,-99.99,,,-99.99,,2013-04-28 07:42:00,
2013-04-28 02:52:00,53.0,51.0,-100.00,South,185,4.0,9.0,93,-99.99,,,-99.99,,2013-04-28 07:52:00,
2013-04-28 03:02:00,53.0,51.0,-100.00,South,185,4.0,9.0,93,-99.99,,,-99.99,,2013-04-28 08:02:00,
2013-04-28 03:11:00,53.0,51.0,-100.00,South,185,5.0,9.0,93,-99.99,,,-99.99,,2013-04-28 08:11:00,
2013-04-28 03:21:00,53.0,51.0,-100.00,South,185,4.0,9.0,93,-99.99,,,-99.99,,2013-04-28 08:21:00,
2013-04-28 03:32:00,53.0,51.0,-100.00,South,185,4.0,9.0,93,-99.99,,,-99.99,,2013-04-28 08:32:00,
2013-04-28 03:42:00,53.0,51.0,-100.00,South,175,4.0,9.0,93,-99.99,,,-99.99,,2013-04-28 08:42:00,
2013-04-28 03:52:00,53.0,51.0,-100.00,South,170,5.0,8.0,93,-99.99,,,-99.99,,2013-04-28 08:52:00,
2013-04-28 04:01:00,53.0,51.0,-100.00,South,170,5.0,8.0,93,-99.99,,,-99.99,,2013-04-28 09:01:00,
2013-04-28 04:11:00,54.0,52.0,-100.00,South,170,6.0,9.0,93,-99.99,,,-99.99,,2013-04-28 09:11:00,
2013-04-28 04:21:00,54.0,52.0,-100.00,South,170,5.0,9.0,93,-99.99,,,-99.99,,2013-04-28 09:21:00,
2013-04-28 04:33:00,54.0,52.0,-100.00,South,170,5.0,9.0,93,-99.99,,,-99.99,,2013-04-28 09:33:00,
2013-04-28 04:42:00,54.0,52.0,-100.00,South,170,6.0,8.0,93,-99.99,,,-99.99,,2013-04-28 09:42:00,
2013-04-28 04:53:00,54.0,52.0,-100.00,South,170,4.0,9.0,93,-99.99,,,-99.99,,2013-04-28 09:53:00,
2013-04-28 05:03:00,54.0,52.0,-100.00,South,170,4.0,9.0,93,-99.99,,,-99.99,,2013-04-28 10:03:00,
2013-04-28 05:12:00,53.0,52.0,-100.00,South,170,7.0,11.0,94,-99.99,,,-99.99,,2013-04-28 10:12:00,
2013-04-28 05:22:00,53.0,52.0,-100.00,South,170,4.0,8.0,94,-99.99,,,-99.99,,2013-04-28 10:22:00,
2013-04-28 05:32:00,53.0,52.0,-100.00,South,170,4.0,8.0,94,-99.99,,,-99.99,,2013-04-28 10:32:00,
2013-04-28 05:42:00,53.0,52.0,-100.00,SSE,165,5.0,8.0,94,-99.99,,,-99.99,,2013-04-28 10:42:00,
2013-04-28 05:53:00,53.0,52.0,-100.00,South,170,4.0,6.0,94,-99.99,,,-99.99,,2013-04-28 10:53:00,
2013-04-28 06:02:00,53.0,52.0,-100.00,South,170,4.0,6.0,94,-99.99,,,-99.99,,2013-04-28 11:02:00,
2013-04-28 06:11:00,53.0,52.0,-100.00,SSE,165,5.0,8.0,94,-99.99,,,-99.99,,2013-04-28 11:11:00,
2013-04-28 06:22:00,53.0,52.0,-100.00,SSE,165,3.0,6.0,94,-99.99,,,-99.99,,2013-04-28 11:22:00,
2013-04-28 06:32:00,53.0,52.0,-100.00,SSE,165,3.0,6.0,94,-99.99,,,-99.99,,2013-04-28 11:32:00,
2013-04-28 06:42:00,53.0,52.0,-100.00,SSE,165,5.0,8.0,94,-99.99,,,-99.99,,2013-04-28 11:42:00,
2013-04-28 06:52:00,53.0,52.0,-100.00,SSE,165,5.0,8.0,94,-99.99,,,-99.99,,2013-04-28 11:52:00,
2013-04-28 07:02:00,53.0,52.0,-100.00,SSE,165,5.0,8.0,94,-99.99,,,-99.99,,2013-04-28 12:02:00,
2013-04-28 07:12:00,53.0,52.0,-100.00,SSE,165,5.0,7.0,94,-99.99,,,-99.99,,2013-04-28 12:12:00,
2013-04-28 07:21:00,53.0,52.0,-100.00,South,170,2.0,7.0,94,-99.99,,,-99.99,,2013-04-28 12:21:00,
2013-04-28 07:32:00,53.0,52.0,-100.00,South,170,2.0,7.0,94,-99.99,,,-99.99,,2013-04-28 12:32:00,
2013-04-28 07:42:00,53.0,52.0,-100.00,South,175,4.0,5.0,94,-99.99,,,-99.99,,2013-04-28 12:42:00,
2013-04-28 07:52:00,54.0,52.0,-100.00,South,175,3.0,7.0,94,-99.99,,,-99.99,,2013-04-28 12:52:00,
2013-04-28 08:02:00,54.0,52.0,-100.00,South,175,3.0,7.0,94,-99.99,,,-99.99,,2013-04-28 13:02:00,
2013-04-28 08:11:00,54.0,52.0,-100.00,South,175,3.0,7.0,94,-99.99,,,-99.99,,2013-04-28 13:11:00,
2013-04-28 08:42:00,54.0,52.0,-100.00,South,185,2.0,6.0,94,-99.99,,,-99.99,,2013-04-28 13:42:00,
2013-04-28 08:52:00,54.0,52.0,-100.00,South,185,4.0,6.0,94,-99.99,,,-99.99,,2013-04-28 13:52:00,
2013-04-28 09:02:00,54.0,52.0,-100.00,South,185,4.0,6.0,94,-99.99,,,-99.99,,2013-04-28 14:02:00,
2013-04-28 09:11:00,54.0,52.0,-100.00,SSW,205,4.0,6.0,94,-99.99,,,-99.99,,2013-04-28 14:11:00,
2013-04-28 09:22:00,54.0,52.0,-100.00,SSW,200,4.0,9.0,94,-99.99,,,-99.99,,2013-04-28 14:22:00,
2013-04-28 09:32:00,54.0,52.0,-100.00,SSW,200,4.0,9.0,94,-99.99,,,-99.99,,2013-04-28 14:32:00,
2013-04-28 09:42:00,54.0,52.0,-100.00,SSW,200,4.0,8.0,94,-99.99,,,-99.99,,2013-04-28 14:42:00,
2013-04-28 09:52:00,54.0,52.0,-100.00,SSW,205,5.0,6.0,94,-99.99,,,-99.99,,2013-04-28 14:52:00,
2013-04-28 10:02:00,54.0,52.0,-100.00,SSW,205,5.0,6.0,94,-99.99,,,-99.99,,2013-04-28 15:02:00,
2013-04-28 10:12:00,54.0,52.0,-100.00,SSW,205,5.0,6.0,94,-99.99,,,-99.99,,2013-04-28 15:12:00,
2013-04-28 10:21:00,54.0,53.0,-100.00,SSW,195,4.0,9.0,94,-99.99,,,-99.99,,2013-04-28 15:21:00,
2013-04-28 10:32:00,54.0,53.0,-100.00,SSW,195,4.0,9.0,94,-99.99,,,-99.99,,2013-04-28 15:32:00,
2013-04-28 10:42:00,54.0,53.0,-100.00,SSW,195,5.0,9.0,94,-99.99,,,-99.99,,2013-04-28 15:42:00,
2013-04-28 10:53:00,54.0,52.0,-100.00,South,190,5.0,10.0,94,-99.99,,,-99.99,,2013-04-28 15:53:00,
2013-04-28 11:03:00,54.0,52.0,-100.00,South,190,5.0,10.0,94,-99.99,,,-99.99,,2013-04-28 16:03:00,
2013-04-28 11:13:00,54.0,52.0,-100.00,South,190,9.0,11.0,94,-99.99,,,-99.99,,2013-04-28 16:13:00,
2013-04-28 11:23:00,54.0,52.0,-100.00,South,180,3.0,11.0,94,-99.99,,,-99.99,,2013-04-28 16:23:00,
2013-04-28 11:33:00,54.0,52.0,-100.00,South,180,3.0,11.0,94,-99.99,,,-99.99,,2013-04-28 16:33:00,
2013-04-28 11:42:00,54.0,53.0,-100.00,South,190,6.0,12.0,94,-99.99,,,-99.99,,2013-04-28 16:42:00,
2013-04-28 11:52:00,55.0,53.0,-100.00,South,185,6.0,10.0,94,-99.99,,,-99.99,,2013-04-28 16:52:00,
2013-04-28 12:02:00,55.0,53.0,-100.00,South,185,6.0,10.0,94,-99.99,,,-99.99,,2013-04-28 17:02:00,
2013-04-28 12:12:00,55.0,54.0,-100.00,South,185,8.0,10.0,94,-99.99,,,-99.99,,2013-04-28 17:12:00,
2013-04-28 12:22:00,56.0,54.0,-100.00,ESE,120,6.0,9.0,94,-99.99,,,-99.99,,2013-04-28 17:22:00,
2013-04-28 12:32:00,56.0,54.0,-100.00,ESE,120,6.0,9.0,94,-99.99,,,-99.99,,2013-04-28 17:32:00,
2013-04-28 12:42:00,58.0,56.0,-100.00,NE,40,4.0,9.0,94,-99.99,,,-99.99,,2013-04-28 17:42:00,
2013-04-28 12:52:00,59.0,57.0,-100.00,NNE,15,1.0,6.0,93,-99.99,,,-99.99,,2013-04-28 17:52:00,
2013-04-28 13:02:00,59.0,57.0,-100.00,NNE,15,1.0,6.0,93,-99.99,,,-99.99,,2013-04-28 18:02:00,
2013-04-28 13:12:00,61.0,58.0,-100.00,North,10,2.0,6.0,91,-99.99,,,-99.99,,2013-04-28 18:12:00,
2013-04-28 13:22:00,62.0,58.0,-100.00,North,5,1.0,4.0,87,-99.99,,,-99.99,,2013-04-28 18:22:00,
2013-04-28 13:32:00,62.0,58.0,-100.00,North,5,1.0,4.0,87,-99.99,,,-99.99,,2013-04-28 18:32:00,
2013-04-28 13:42:00,64.0,58.0,-100.00,North,5,1.0,4.0,80,-99.99,,,-99.99,,2013-04-28 18:42:00,
2013-04-28 13:52:00,64.0,55.0,-100.00,North,5,4.0,6.0,71,-99.99,,,-99.99,,2013-04-28 18:52:00,
2013-04-28 14:02:00,64.0,55.0,-100.00,North,5,4.0,6.0,71,-99.99,,,-99.99,,2013-04-28 19:02:00,
2013-04-28 14:11:00,65.0,53.0,-100.00,North,5,3.0,6.0,67,-99.99,,,-99.99,,2013-04-28 19:11:00,
2013-04-28 14:22:00,65.0,53.0,-100.00,North,5,9.0,11.0,66,-99.99,,,-99.99,,2013-04-28 19:22:00,
2013-04-28 14:32:00,65.0,53.0,-100.00,North,5,9.0,11.0,66,-99.99,,,-99.99,,2013-04-28 19:32:00,
2013-04-28 14:42:00,64.0,52.0,-100.00,North,5,6.0,9.0,66,-99.99,,,-99.99,,2013-04-28 19:42:00,
2013-04-28 14:52:00,65.0,53.0,-100.00,North,5,6.0,7.0,66,-99.99,,,-99.99,,2013-04-28 19:52:00,
2013-04-28 15:02:00,65.0,53.0,-100.00,North,5,6.0,7.0,66,-99.99,,,-99.99,,2013-04-28 20:02:00,
2013-04-28 15:12:00,65.0,53.0,-100.00,North,5,7.0,11.0,64,-99.99,,,-99.99,,2013-04-28 20:12:00,
2013-04-28 15:22:00,65.0,53.0,-100.00,North,5,7.0,14.0,65,-99.99,,,-99.99,,2013-04-28 20:22:00,
2013-04-28 15:32:00,65.0,53.0,-100.00,North,5,7.0,14.0,65,-99.99,,,-99.99,,2013-04-28 20:32:00,
2013-04-28 15:42:00,65.0,53.0,-100.00,North,5,9.0,13.0,64,-99.99,,,-99.99,,2013-04-28 20:42:00,
2013-04-28 15:52:00,65.0,53.0,-100.00,North,5,7.0,13.0,63,-99.99,,,-99.99,,2013-04-28 20:52:00,
2013-04-28 16:01:00,65.0,53.0,-100.00,North,5,7.0,13.0,63,-99.99,,,-99.99,,2013-04-28 21:01:00,
2013-04-28 16:11:00,67.0,53.0,-100.00,North,5,6.0,12.0,62,-99.99,,,-99.99,,2013-04-28 21:11:00,
2013-04-28 16:22:00,68.0,53.0,-100.00,North,5,9.0,11.0,59,-99.99,,,-99.99,,2013-04-28 21:22:00,
2013-04-28 16:33:00,68.0,53.0,-100.00,North,5,9.0,11.0,59,-99.99,,,-99.99,,2013-04-28 21:33:00,
2013-04-28 16:42:00,67.0,52.0,-100.00,North,5,6.0,10.0,58,-99.99,,,-99.99,,2013-04-28 21:42:00,
2013-04-28 16:53:00,67.0,52.0,-100.00,North,5,6.0,8.0,58,-99.99,,,-99.99,,2013-04-28 21:53:00,
2013-04-28 17:03:00,67.0,52.0,-100.00,North,5,6.0,8.0,58,-99.99,,,-99.99,,2013-04-28 22:03:00,
2013-04-28 17:12:00,69.0,53.0,-100.00,North,5,1.0,6.0,57,-99.99,,,-99.99,,2013-04-28 22:12:00,
2013-04-28 17:23:00,68.0,52.0,-100.00,North,5,9.0,11.0,55,-99.99,,,-99.99,,2013-04-28 22:23:00,
2013-04-28 17:33:00,68.0,52.0,-100.00,North,5,9.0,11.0,55,-99.99,,,-99.99,,2013-04-28 22:33:00,
2013-04-28 17:42:00,69.0,52.0,-100.00,North,5,9.0,12.0,55,-99.99,,,-99.99,,2013-04-28 22:42:00,
2013-04-28 17:52:00,68.0,52.0,-100.00,North,5,7.0,10.0,56,-99.99,,,-99.99,,2013-04-28 22:52:00,
2013-04-28 18:02:00,68.0,52.0,-100.00,North,5,7.0,10.0,56,-99.99,,,-99.99,,2013-04-28 23:02:00,
2013-04-28 18:12:00,68.0,52.0,-100.00,North,5,10.0,13.0,56,-99.99,,,-99.99,,2013-04-28 23:12:00,
2013-04-28 18:22:00,69.0,52.0,-100.00,North,5,10.0,14.0,56,-99.99,,,-99.99,,2013-04-28 23:22:00,
2013-04-28 18:32:00,69.0,52.0,-100.00,North,5,10.0,14.0,56,-99.99,,,-99.99,,2013-04-28 23:32:00,
2013-04-28 18:42:00,68.0,52.0,-100.00,North,5,9.0,14.0,56,-99.99,,,-99.99,,2013-04-28 23:42:00,
2013-04-28 18:52:00,68.0,52.0,-100.00,North,5,8.0,13.0,56,-99.99,,,-99.99,,2013-04-28 23:52:00,
2013-04-28 19:01:00,68.0,52.0,-100.00,North,5,8.0,13.0,56,-99.99,,,-99.99,,2013-04-29 00:01:00,
2013-04-28 19:11:00,68.0,52.0,-100.00,North,5,8.0,11.0,56,-99.99,,,-99.99,,2013-04-29 00:11:00,
2013-04-28 19:22:00,67.0,51.0,-100.00,North,5,9.0,12.0,56,-99.99,,,-99.99,,2013-04-29 00:22:00,
2013-04-28 19:32:00,67.0,51.0,-100.00,North,5,9.0,12.0,56,-99.99,,,-99.99,,2013-04-29 00:32:00,
2013-04-28 19:42:00,67.0,51.0,-100.00,North,5,9.0,12.0,56,-99.99,,,-99.99,,2013-04-29 00:42:00,
2013-04-28 19:52:00,65.0,51.0,-100.00,North,5,8.0,11.0,60,-99.99,,,-99.99,,2013-04-29 00:52:00,
2013-04-28 20:01:00,65.0,51.0,-100.00,North,5,8.0,11.0,60,-99.99,,,-99.99,,2013-04-29 01:01:00,
2013-04-28 20:12:00,64.0,51.0,-100.00,North,5,10.0,13.0,62,-99.99,,,-99.99,,2013-04-29 01:12:00,
2013-04-28 20:21:00,63.0,51.0,-100.00,North,5,9.0,14.0,64,-99.99,,,-99.99,,2013-04-29 01:21:00,
2013-04-28 20:32:00,63.0,51.0,-100.00,North,5,9.0,14.0,64,-99.99,,,-99.99,,2013-04-29 01:32:00,
2013-04-28 20:42:00,63.0,52.0,-100.00,North,5,8.0,11.0,66,-99.99,,,-99.99,,2013-04-29 01:42:00,
2013-04-28 20:52:00,62.0,52.0,-100.00,North,5,7.0,10.0,68,-99.99,,,-99.99,,2013-04-29 01:52:00,
2013-04-28 21:02:00,62.0,52.0,-100.00,North,5,7.0,10.0,68,-99.99,,,-99.99,,2013-04-29 02:02:00,
2013-04-28 21:11:00,62.0,52.0,-100.00,North,10,7.0,11.0,68,-99.99,,,-99.99,,2013-04-29 02:11:00,
2013-04-28 21:22:00,61.0,52.0,-100.00,North,10,6.0,11.0,71,-99.99,,,-99.99,,2013-04-29 02:22:00,
2013-04-28 21:32:00,61.0,52.0,-100.00,North,10,6.0,11.0,71,-99.99,,,-99.99,,2013-04-29 02:32:00,
2013-04-28 21:42:00,61.0,52.0,-100.00,North,10,6.0,11.0,73,-99.99,,,-99.99,,2013-04-29 02:42:00,
2013-04-28 21:52:00,61.0,53.0,-100.00,North,10,9.0,11.0,75,-99.99,,,-99.99,,2013-04-29 02:52:00,
2013-04-28 22:01:00,61.0,53.0,-100.00,North,10,9.0,11.0,75,-99.99,,,-99.99,,2013-04-29 03:01:00,
2013-04-28 22:12:00,60.0,52.0,-100.00,NNE,15,6.0,12.0,76,-99.99,,,-99.99,,2013-04-29 03:12:00,
2013-04-28 22:21:00,60.0,53.0,-100.00,NNE,15,11.0,17.0,78,-99.99,,,-99.99,,2013-04-29 03:21:00,
2013-04-28 22:33:00,60.0,53.0,-100.00,NNE,15,11.0,17.0,78,-99.99,,,-99.99,,2013-04-29 03:33:00,
2013-04-28 22:42:00,59.0,53.0,-100.00,NNE,15,11.0,20.0,80,-99.99,,,-99.99,,2013-04-29 03:42:00,
2013-04-28 22:53:00,58.0,53.0,-100.00,NNE,20,11.0,15.0,81,-99.99,,,-99.99,,2013-04-29 03:53:00,
2013-04-28 23:03:00,58.0,53.0,-100.00,NNE,20,11.0,15.0,81,-99.99,,,-99.99,,2013-04-29 04:03:00,
2013-04-28 23:13:00,58.0,52.0,-100.00,NNE,20,4.0,17.0,82,-99.99,,,-99.99,,2013-04-29 04:13:00,
2013-04-28 23:23:00,58.0,53.0,-100.00,NNE,20,12.0,17.0,84,-99.99,,,-99.99,,2013-04-29 04:23:00,
2013-04-28 23:33:00,58.0,53.0,-100.00,NNE,20,12.0,17.0,84,-99.99,,,-99.99,,2013-04-29 04:33:00,
2013-04-28 23:43:00,57.0,52.0,-100.00,NNE,20,12.0,17.0,84,-99.99,,,-99.99,,2013-04-29 04:43:00,
2013-04-28 23:52:00,56.0,52.0,-100.00,NNE,20,11.0,15.0,85,-99.99,,,-99.99,,2013-04-29 04:52:00,